Location: Barclay Farm
(6.3000°N, 10.6833°W)
Time: 10:18:35
(UTC+00:00)

Daily predictions for brighter satellites

Satellite Brightness Start Highest point End
(mag) Time Altitude Azimuth Time Altitude Azimuth Time Altitude Azimuth
Maqsat-B 4.3 18:54:40 10° WSW 18:58:51 50° SSE 19:13:27 10° E
SWIFT 3.0 18:58:02 10° NW 19:02:02 40° NNE 19:06:00 10° E
Cosmos 1975 Rocket 3.1 18:57:40 10° N 19:02:06 90° ENE 19:06:30 10° S
Lacrosse 5 3.7 19:02:52 10° SE 19:04:46 12° ESE 19:06:41 10° E
Cosmos 2056 Rocket 4.2 19:02:41 10° SSE 19:07:27 32° E 19:12:13 10° NE
Okean 1 Rocket 3.4 19:04:28 10° SSE 19:08:34 42° E 19:12:39 10° NNE
SL-16 R/B 2.3 19:04:34 10° NNW 19:10:13 86° WSW 19:15:54 10° SSE
ARIANE 5 DEB (SYLDA) 3.9 19:04:24 10° W 19:10:59 52° S 19:14:51 11° ESE
CZ-3 Stage 3 3.4 18:59:00 10° WSW 19:11:11 47° NW 19:14:34 10° NE
USA 32 4.4 19:08:58 10° NNE 19:13:54 42° E 19:18:49 10° SSE
YAOGAN 6 2.9 19:11:35 10° SSE 19:15:01 43° ENE 19:18:27 10° N
Cosmos 1269 Rocket 4.2 19:13:34 10° NNW 19:18:51 80° WSW 19:24:09 10° S
ARIANE 5 R/B 3.5 19:17:01 10° WSW 19:19:02 16° SSW 19:20:24 10° SSE
Cosmos 1624 Rocket 4.2 19:14:29 10° S 19:19:28 46° ESE 19:24:24 10° NNE
Cosmos 1441 Rocket 3.2 19:16:22 10° S 19:20:17 87° W 19:24:07 10° N
GOES 2 Rocket 4.1 19:18:56 10° WSW 19:24:47 86° NNW 19:32:34 11° ENE
CSL-04 Rocket 3.7 19:20:04 10° SSE 19:25:21 58° ENE 19:30:43 10° N
PAYLOAD A 3.0 19:24:51 10° W 19:28:27 89° N 19:31:38 19° E
CSL-04 Debris 4.1 19:24:53 10° SSE 19:30:13 66° ENE 19:35:32 10° N
FengYun 1-2 T 4.2 19:26:38 10° SSE 19:32:14 87° ENE 19:37:51 10° NNW
Maqsat-H 3.4 19:28:16 10° WSW 19:33:04 60° SSE 19:45:24 19° E
Okean 2 4.1 19:32:02 10° NNW 19:36:02 55° W 19:40:06 10° S
Cosmos 2333 Rocket 4.1 19:34:24 10° NE 19:35:12 12° NE 19:35:12 12° NE
CZ-4 R/B 1.8 19:34:08 10° S 19:37:54 59° WSW 19:41:42 10° NNW
YAOGAN 1 2.5 19:33:42 10° SSE 19:38:01 86° ENE 19:42:20 10° N
Genesis I 3.2 19:37:24 10° N 19:41:05 49° ENE 19:42:39 29° SE
Lacrosse 4 Rocket 1.8 19:39:30 10° NNW 19:43:28 60° WSW 19:47:30 10° S
GP-B 3.0 19:40:59 10° N 19:45:24 82° E 19:49:51 10° S
Cosmos 2184 Rocket 3.9 19:39:13 10° N 19:45:27 66° E 19:51:45 10° SSE
Cosmos 1025 Rocket 2.9 19:42:55 10° N 19:47:07 60° E 19:51:21 10° SSE
ADEOS Rocket 3.9 19:40:59 10° NE 19:48:06 40° ESE 19:55:06 10° SSE
SL-4 R/B 2.6 19:45:58 10° SSW 19:49:36 35° SE 19:49:36 35° SE
Cosmos 1378 3.2 19:46:14 10° N 19:49:57 78° W 19:53:40 10° S
Ariane H10-3 3.7 19:50:07 10° SW 19:51:48 15° S 19:51:48 15° S
Cosmos 1536 Rocket 3.5 19:48:01 10° N 19:52:20 87° W 19:56:42 10° S
Cosmos 2322 Rocket 4.2 19:57:24 10° NW 20:02:05 27° WSW 20:06:46 10° SSW
Palapa 6 Rocket 4.4 19:58:39 10° SW 20:05:15 40° SSE 20:06:28 36° SE
NOAA 11 4.1 20:00:07 10° SSE 20:05:36 73° ENE 20:11:04 10° N
ATLAS 2AS CENTAUR R/B 4.5 20:02:12 10° NNE 20:03:36 13° NE 20:03:36 13° NE
ASTEX 1 3.3 20:03:07 10° N 20:08:00 90° E 20:12:55 10° S
Cosmos 2082 3.6 20:02:35 10° SSW 20:08:17 84° ESE 20:14:00 10° NNE
CZ-2D R/B 3.4 20:06:09 22° S 20:08:28 69° WSW 20:12:14 10° NNW
Cosmos 1610 Rocket 4.4 20:03:07 10° N 20:09:26 70° E 20:15:47 10° S
Cosmos 1939 Rocket 2.7 20:09:49 72° S 20:10:11 83° WSW 20:14:02 10° NNW
Centaur AC-146 4.1 20:07:29 10° WNW 20:12:18 70° NNE 20:21:46 33° E
Cosmos 2327 Rocket 4.3 20:07:28 10° N 20:13:36 89° E 20:19:41 10° S
Cosmos 2333 4.1 20:11:17 10° N 20:16:55 61° ENE 20:16:55 61° ENE
Cosmos 2219 Rocket 3.6 20:14:27 10° N 20:16:40 22° NNE 20:16:40 22° NNE
COSMOS 2455 2.7 20:14:46 10° N 20:20:42 64° ENE 20:20:42 64° ENE
Cosmos 2227 Rocket 3.8 20:20:20 10° SW 20:25:22 34° WNW 20:30:24 10° N
Cosmos 2251 Rocket 3.8 20:22:08 10° NNW 20:27:26 66° WSW 20:29:30 37° S
GPS 2-15 Rocket1 3.8 20:23:13 10° W 20:27:22 47° NW 20:27:22 47° NW
COSMOS 2428 4.0 20:22:21 10° N 20:24:57 26° NNE 20:24:57 26° NNE
Cosmos 2322 3.8 20:23:03 10° NNW 20:28:45 75° WSW 20:30:17 49° S
Cosmos 2360 Rocket 3.7 20:27:03 10° NW 20:32:04 34° WSW 20:37:08 10° SSW
Ariane H10 3.6 20:30:38 10° W 20:33:22 68° WNW 20:33:22 68° WNW
Cosmos 2181 Rocket 4.1 20:28:16 10° S 20:34:23 70° W 20:40:34 10° N
Cosmos 2297 Rocket 4.4 20:31:39 10° SW 20:36:06 24° WNW 20:40:33 10° NNW
Ariane Rocket 3.9 20:34:10 14° S 20:38:10 45° WSW 20:42:58 10° NNW
ARIANE 5 R/B 3.7 20:36:24 10° WSW 20:40:21 53° SSE 20:40:32 53° SSE
SWIFT 4.4 20:39:51 10° W 20:41:53 26° W 20:41:53 26° W
Lacrosse 5 2.9 20:42:35 10° SW 20:46:33 42° W 20:46:33 42° W
ARIANE 5 R/B 4.0 12:14:04 10° W 21:05:24 62° SSW 21:05:24 62° SSW
BLOCK DM-SL R/B 4.2 14:16:49 10° W 21:07:33 68° S 21:09:25 62° SSE
CZ-3B R/B 3.5 20:52:54 10° SW 21:09:22 59° S 21:09:22 59° S
Kakehashi 4.4 21:04:28 10° WNW 21:14:55 64° W 21:14:55 64° W
CZ-3B R/B 4.4 20:48:11 10° WNW 21:18:46 56° SW 21:20:16 53° SSW
Cosmos 2333 Rocket 4.4 21:15:40 10° NW 21:17:17 19° NW 21:17:17 19° NW
